Rome, NY

11:22 PM EST on February 24, 2018 (GMT -0500)
Griffiss

Weather History for KRME - April, 2013

Change the Weather History Date:

Friday, April 5, 2013

  Actual Average Record
Temperature  
Mean Temperature 35 °F -  
Max Temperature 45 °F 52 °F 71 °F (1985)
Min Temperature 26 °F 36 °F 6 °F (2016)
Degree Days  
Heating Degree Days 30    
Moisture  
Dew Point 25 °F    
Average Humidity 69    
Maximum Humidity 93    
Minimum Humidity 49    
Precipitation  
Precipitation 0.00 in - - ()
Sea Level Pressure  
Sea Level Pressure 29.95 in    
Wind  
Wind Speed 7 mph (NW)    
Max Wind Speed 23 mph    
Max Gust Speed 30 mph    
Visibility 9 miles    
Events Rain , Snow    
Averages and records for this station are not official NWS values.
T = Trace of Precipitation, MM = Missing Value Source: NWS Daily Summary

Daily Weather History Graph

Daily Weather History Graph

Search for Another Location

Airport or City:

Trip Planner

Search our weather history database for the weather conditions in past years. The results will help you decide how hot, cold, wet, or windy it might be!

Date:

Astronomy

Apr. 05, 2013 Rise Set
Actual Time 6:36 AM EDT 7:33 PM EDT
Civil Twilight 6:07 AM EDT 8:02 PM EDT
Nautical Twilight 5:32 AM EDT 8:36 PM EDT
Astronomical Twilight 4:56 AM EDT 9:12 PM EDT
Moon 3:49 AM EDT (4/5) 2:47 PM EDT (4/5)
Length of Visible Light 13h 54m
Length of Day
12h 56m
Waning Crescent, 24% of the Moon is Illuminated
Apr 5
Waning Crescent
Apr 10
New
Apr 18
First Quarter
Apr 25
Full
May 2
Last Quarter

Hourly Weather History & Observations

Time (EDT) Temp. Windchill Dew Point Humidity Pressure Visibility Wind Dir Wind Speed Gust Speed Precip Events Conditions
12:53 AM 35.1 °F - 19.0 °F 52% 29.94 in 10.0 mi Calm Calm - N/A   Clear
1:53 AM 35.1 °F 31.0 °F 18.0 °F 50% 29.94 in 10.0 mi East 4.6 mph - N/A   Clear
2:53 AM 32.0 °F 26.4 °F 18.0 °F 56% 29.92 in 10.0 mi East 5.8 mph - N/A   Clear
3:53 AM 30.9 °F 26.2 °F 19.0 °F 61% 29.90 in 10.0 mi East 4.6 mph - N/A   Clear
4:53 AM 27.0 °F - 21.0 °F 78% 29.90 in 10.0 mi Calm Calm - N/A   Clear
5:53 AM 27.0 °F - 19.0 °F 72% 29.89 in 10.0 mi Calm Calm - N/A   Clear
6:53 AM 26.1 °F - 19.9 °F 78% 29.90 in 10.0 mi Calm Calm - N/A   Clear
7:53 AM 28.9 °F - 23.0 °F 78% 29.92 in 10.0 mi Calm Calm - N/A   Overcast
8:53 AM 32.0 °F - 21.9 °F 66% 29.92 in 10.0 mi Calm Calm - N/A   Overcast
9:53 AM 37.0 °F 31.0 °F 24.1 °F 59% 29.91 in 10.0 mi West 8.1 mph - N/A   Overcast
10:53 AM 41.0 °F 32.8 °F 28.9 °F 62% 29.91 in 10.0 mi NW 16.1 mph 25.3 mph N/A   Mostly Cloudy
11:53 AM 43.0 °F 35.1 °F 28.9 °F 58% 29.91 in 10.0 mi WNW 17.3 mph - N/A   Mostly Cloudy
12:53 PM 44.1 °F 36.8 °F 26.1 °F 49% 29.91 in 10.0 mi WNW 16.1 mph 24.2 mph N/A   Mostly Cloudy
1:53 PM 42.1 °F 33.6 °F 25.0 °F 51% 29.91 in 10.0 mi NW 18.4 mph 21.9 mph N/A   Mostly Cloudy
2:53 PM 42.1 °F 34.2 °F 26.1 °F 53% 29.91 in 10.0 mi WNW 16.1 mph - N/A   Mostly Cloudy
3:53 PM 41.0 °F 31.1 °F 27.0 °F 57% 29.90 in 10.0 mi NW 23.0 mph 27.6 mph 0.00 in Rain Light Rain
4:53 PM 39.9 °F 29.7 °F 28.0 °F 63% 29.92 in 10.0 mi WNW 23.0 mph 28.8 mph 0.00 in   Mostly Cloudy
5:53 PM 37.9 °F 28.2 °F 28.0 °F 68% 29.95 in 10.0 mi WNW 18.4 mph - 0.00 in   Mostly Cloudy
6:39 PM 35.1 °F 23.5 °F 30.0 °F 82% 29.96 in 1.8 mi WNW 21.9 mph 29.9 mph 0.00 in Snow Light Snow
6:50 PM 33.8 °F 25.8 °F 32.0 °F 93% 29.97 in 2.0 mi WNW 10.4 mph - 0.00 in Snow Light Snow
6:53 PM 34.0 °F 26.0 °F 32.0 °F 92% 29.99 in 8.0 mi WNW 10.4 mph - 0.00 in   Overcast
7:53 PM 34.0 °F 25.5 °F 30.0 °F 85% 30.00 in 10.0 mi WNW 11.5 mph - N/A   Scattered Clouds
8:53 PM 33.1 °F 26.1 °F 28.0 °F 82% 30.03 in 10.0 mi WNW 8.1 mph - N/A   Mostly Cloudy
9:53 PM 34.0 °F 25.5 °F 25.0 °F 70% 30.05 in 10.0 mi WNW 11.5 mph - N/A   Mostly Cloudy
10:53 PM 32.0 °F 24.2 °F 28.0 °F 85% 30.06 in 3.0 mi WNW 9.2 mph - 0.00 in Snow Light Snow
11:53 PM 30.0 °F 22.4 °F 26.1 °F 85% 30.07 in 10.0 mi NNW 8.1 mph - 0.00 in   Overcast